(176646) = 2002 NM19

Discovered at Socorro on 2002-07-09 by LINEAR.

Orbit

Orbit type: Main Belt

Note: WebGL enabled browser required.

epoch2023-09-13.0
epoch JD2460200.5
perihelion date2023-07-19.87207
perihelion JD2460145.37207
argument of perihelion (°)129.46903
ascending node (°)152.96541
inclination (°)6.44585
eccentricity0.2192152
perihelion distance (AU)1.8082204
Tisserand w.r.t. Jupiter3.5
ΔV w.r.t. Earth (km/sec)8.6
semimajor axis (AU)2.3159011
mean anomaly (°)15.41684
mean daily motion (°/day)0.27965580
aphelion distance (AU)2.824
period (years)3.52
P-vector [x]0.21754043
P-vector [y]-0.92644567
P-vector [z]-0.30720446
Q-vector [x]0.97471657
Q-vector [y]0.22265654
Q-vector [z]0.01875323
absolute magnitude17.15
phase slope0.15
uncertainty0
referenceMPEC 2024-A34
observations used344
oppositions16
arc length (days)9325
first opposition used1998
last opposition used2023
residual rms (arc-secs)0.89
perturbers coarse indicatorM-v
perturbers precise indicator003Ek
first observation date used1998-04-20.0
last observation date used2023-10-31.0
computer nameMPCLINUX
JD of orbit computation2456639.657257
perihelion JD uncertainty (days)8.8863E-05
argument of perihelion uncertainty (°)5.1498E-05
ascending node uncertainty (°)4.4311E-05
inclination uncertainty (°)7.6236E-06
eccentricity uncertainty 4.6361E-08
perihelion distance uncertainty (AU)1.0712E-07
Minimum Orbit Intersection Distances (in AU)
for orbit epoch: 2460200.5, reference: E2024-A34
Mercury1.35897
Venus1.08828
Earth0.79953
Mars0.40876
Jupiter2.34734
Saturn6.24945
Uranus15.8304
Neptune27.2263

Observations

359 total observations over interval: 1998 04 20.15246 – 2023 10 31.226716
These data are available for download (format description).

Date (UT) J2000 RA J2000 Dec Magn Location Ref
1998 04 20.15246 12 45 48.55 +04 07 43.1 19.8   704 – Lincoln Laboratory ETS, New Mexico MPS 60000
1998 04 20.17273 12 45 47.64 +04 07 50.2 19.8   704 – Lincoln Laboratory ETS, New Mexico MPS 60000
1998 04 20.19290 12 45 46.46 +04 07 59.3 19.9   704 – Lincoln Laboratory ETS, New Mexico MPS 60000
1998 04 20.21380 12 45 45.42 +04 08 08.5 20.0   704 – Lincoln Laboratory ETS, New Mexico MPS 60000
1998 04 24.14544 12 42 39.61 +04 33 34.3 19.3   704 – Lincoln Laboratory ETS, New Mexico MPS 60000
1998 04 24.16431 12 42 38.71 +04 33 42.3 20.1   704 – Lincoln Laboratory ETS, New Mexico MPS 60000
1998 04 24.18336 12 42 37.92 +04 33 49.2 20.3   704 – Lincoln Laboratory ETS, New Mexico MPS 60000
1998 04 24.20223 12 42 36.91 +04 33 55.0 20.1   704 – Lincoln Laboratory ETS, New Mexico MPS 60000
1998 04 24.22174 12 42 35.71 +04 34 04.2 20.1   704 – Lincoln Laboratory ETS, New Mexico MPS 60000
2002 06 13.34289 21 09 52.97 -08 09 46.7 19.1   704 – Lincoln Laboratory ETS, New Mexico MPS 60000
2002 06 13.35672 21 09 53.43 -08 09 45.9 20.0   704 – Lincoln Laboratory ETS, New Mexico MPS 60000
2002 06 13.38437 21 09 54.38 -08 09 41.3 19.6   704 – Lincoln Laboratory ETS, New Mexico MPS 60000
2002 06 13.39828 21 09 54.89 -08 09 40.4 19.7   704 – Lincoln Laboratory ETS, New Mexico MPS 60000
2002 07 09.31137 21 14 03.55 -08 36 51.0 18.7   704 – Lincoln Laboratory ETS, New Mexico MPS 59072
2002 07 09.32380 21 14 03.28 -08 36 55.4 18.8   704 – Lincoln Laboratory ETS, New Mexico MPS 59072
2002 07 09.33650 21 14 03.05 -08 36 58.7 19.3   704 – Lincoln Laboratory ETS, New Mexico MPS 59072
2002 07 09.34902 21 14 02.74 -08 37 02.7 19.7   704 – Lincoln Laboratory ETS, New Mexico MPS 59072
2002 07 09.36161 21 14 02.52 -08 37 06.6 19.4   704 – Lincoln Laboratory ETS, New Mexico MPS 59072
2002 07 09.98713 21 13 51.68 -08 40 03.3 18.2 R 599 – Campo Imperatore-CINEOS MPS 59072
2002 07 09.99807 21 13 51.38 -08 40 06.8 18.8 R 599 – Campo Imperatore-CINEOS MPS 59072
2002 07 10.00874 21 13 51.23 -08 40 10.0 18.4 R 599 – Campo Imperatore-CINEOS MPS 59072
2002 07 12.04497 21 13 10.19 -08 50 30.8 18.7 R 599 – Campo Imperatore-CINEOS MPS 60000
2002 07 12.05573 21 13 09.91 -08 50 34.5 18.6 R 599 – Campo Imperatore-CINEOS MPS 60000
2002 07 12.06493 21 13 09.67 -08 50 37.5 18.5 R 599 – Campo Imperatore-CINEOS MPS 60000
2002 07 12.30525 21 13 04.72 -08 51 53.7 18.6   644 – Palomar Mountain/NEAT MPS 59072
2002 07 12.32157 21 13 04.31 -08 51 59.1 18.6   644 – Palomar Mountain/NEAT MPS 59072
2002 07 12.33727 21 13 03.90 -08 52 04.5 18.5   644 – Palomar Mountain/NEAT MPS 59072
2002 07 14.29264 21 12 16.69 -09 03 14.1 18.8   704 – Lincoln Laboratory ETS, New Mexico MPS 59072
2002 07 14.30558 21 12 16.32 -09 03 18.7 19.0   704 – Lincoln Laboratory ETS, New Mexico MPS 59072
2002 07 14.31817 21 12 16.00 -09 03 23.7 19.7   704 – Lincoln Laboratory ETS, New Mexico MPS 59072
2002 07 14.33071 21 12 15.54 -09 03 27.9 19.2   704 – Lincoln Laboratory ETS, New Mexico MPS 59072
2002 07 14.34333 21 12 15.23 -09 03 32.2 19.4   704 – Lincoln Laboratory ETS, New Mexico MPS 59072
2002 07 21.33588 21 08 36.16 -09 51 24.7 18.3   644 – Palomar Mountain/NEAT MPS 59072
2002 07 21.35701 21 08 35.34 -09 51 34.4 18.2   644 – Palomar Mountain/NEAT MPS 59072
2002 07 21.37784 21 08 34.50 -09 51 44.0 18.4   644 – Palomar Mountain/NEAT MPS 59072
2002 07 22.40095 21 07 56.72 -09 59 40.6 18.5   644 – Palomar Mountain/NEAT MPS 60000
2002 07 22.41146 21 07 56.30 -09 59 45.6 18.4   644 – Palomar Mountain/NEAT MPS 60000
2002 07 22.42775 21 07 55.62 -09 59 53.2 18.3   644 – Palomar Mountain/NEAT MPS 60000
2002 08 14.22915 20 51 35.24 -13 31 38.7 18.4   704 – Lincoln Laboratory ETS, New Mexico MPS 60000
2002 08 14.24482 20 51 34.45 -13 31 47.1 19.0   704 – Lincoln Laboratory ETS, New Mexico MPS 60000
2002 08 14.26047 20 51 33.91 -13 31 56.6 18.7   704 – Lincoln Laboratory ETS, New Mexico MPS 60000
2002 08 14.29186 20 51 32.43 -13 32 15.1 19.2   704 – Lincoln Laboratory ETS, New Mexico MPS 60000
2002 08 15.21925 20 50 56.08 -13 41 09.7 18.6 R 699 – Lowell Observatory-LONEOS MPS 60000
2002 08 15.23686 20 50 55.29 -13 41 19.9   699 – Lowell Observatory-LONEOS MPS 60000
2002 08 15.25446 20 50 54.60 -13 41 31.2   699 – Lowell Observatory-LONEOS MPS 60000
2002 08 15.27207 20 50 53.83 -13 41 41.1   699 – Lowell Observatory-LONEOS MPS 60000
2002 08 18.47865 20 48 53.85 -14 11 59.3 19.7   608 – Haleakala-AMOS MPS 61241
2002 08 18.48928 20 48 53.43 -14 12 05.1 19.8   608 – Haleakala-AMOS MPS 61241
2002 08 18.50000 20 48 53.05 -14 12 10.8 19.7   608 – Haleakala-AMOS MPS 61241
2002 08 27.22554 20 44 43.18 -15 28 27.7 18.7   644 – Palomar Mountain/NEAT MPS 61241
2002 08 27.24670 20 44 42.64 -15 28 38.1 18.6   644 – Palomar Mountain/NEAT MPS 61241
2002 08 27.26876 20 44 42.09 -15 28 48.9 18.6   644 – Palomar Mountain/NEAT MPS 61241
2005 03 11.27708 12 44 10.79 +01 01 14.5 20.2 V 691 – Steward Observatory, Kitt Peak-Spacewatch MPS 129981
2005 03 11.30245 12 44 09.71 +01 01 28.0 20.0 V 691 – Steward Observatory, Kitt Peak-Spacewatch MPS 129981
2005 03 11.32777 12 44 08.61 +01 01 41.2 20.2 V 691 – Steward Observatory, Kitt Peak-Spacewatch MPS 129981
2005 03 18.35052 12 38 52.21 +02 05 52.5 18.7 R 703 – Catalina Sky Survey MPS 129981
2005 03 18.35750 12 38 51.85 +02 05 54.9 20.0 R 703 – Catalina Sky Survey MPS 129981
2005 03 18.36456 12 38 51.39 +02 06 01.5 19.7 R 703 – Catalina Sky Survey MPS 129981
2005 03 18.37162 12 38 51.20 +02 06 01.7 20.0 R 703 – Catalina Sky Survey MPS 129981
2005 03 31.20389 12 27 28.69 +04 07 25.8 19.3 R 699 – Lowell Observatory-LONEOS MPS 130188
2005 03 31.22820 12 27 27.33 +04 07 39.2   699 – Lowell Observatory-LONEOS MPS 130188
2005 03 31.25253 12 27 25.75 +04 07 53.1   699 – Lowell Observatory-LONEOS MPS 130188
2005 03 31.27682 12 27 24.26 +04 08 05.1   699 – Lowell Observatory-LONEOS MPS 130188
2005 04 04.30596 12 23 41.17 +04 44 21.1 18.9 R 703 – Catalina Sky Survey MPS 130677
2005 04 04.31407 12 23 40.66 +04 44 25.5 18.9 R 703 – Catalina Sky Survey MPS 130677
2005 04 04.32220 12 23 40.20 +04 44 28.8 19.1 R 703 – Catalina Sky Survey MPS 130677
2005 04 04.33028 12 23 39.73 +04 44 34.1 18.7 R 703 – Catalina Sky Survey MPS 130677
2006 11 24.24340 02 20 09.20 +03 47 01.5 21.0 V G96 – Mt. Lemmon Survey MPS 190369
2006 11 24.24956 02 20 08.95 +03 47 01.1 20.7 V G96 – Mt. Lemmon Survey MPS 190369
2006 11 24.25574 02 20 08.66 +03 47 00.2 20.8 V G96 – Mt. Lemmon Survey MPS 190369
2006 11 24.26205 02 20 08.41 +03 46 59.8 20.7 V G96 – Mt. Lemmon Survey MPS 190369
2008 01 11.37832 08 59 05.42 +12 25 24.7 20.9 V G96 – Mt. Lemmon Survey MPS 233328
2008 01 11.38437 08 59 05.17 +12 25 26.1 21.0 V G96 – Mt. Lemmon Survey MPS 233328
2008 01 11.39042 08 59 04.81 +12 25 28.0 21.2 V G96 – Mt. Lemmon Survey MPS 233328
2008 01 11.39646 08 59 04.56 +12 25 29.7 21.1 V G96 – Mt. Lemmon Survey MPS 233328
2008 02 07.28823 08 32 47.94 +14 52 54.1 20.9 V G96 – Mt. Lemmon Survey MPS 236160
2008 02 07.29516 08 32 47.47 +14 52 56.4 20.9 V G96 – Mt. Lemmon Survey MPS 236160
2008 02 07.30224 08 32 47.07 +14 52 59.3 20.6 V G96 – Mt. Lemmon Survey MPS 236160
2008 02 07.30919 08 32 46.64 +14 53 01.9 21.1 V G96 – Mt. Lemmon Survey MPS 236160
2008 02 10.28490 08 29 49.95 +15 10 35.3 20.6 V G96 – Mt. Lemmon Survey MPS 237416
2008 02 10.29363 08 29 49.45 +15 10 38.5 20.7 V G96 – Mt. Lemmon Survey MPS 237416
2008 02 10.30240 08 29 48.94 +15 10 41.3 20.5 V G96 – Mt. Lemmon Survey MPS 237416
2008 02 10.31113 08 29 48.33 +15 10 44.7 21.1 V G96 – Mt. Lemmon Survey MPS 237416
2009 07 16.87091 20 05 40.45 -11 35 37.9 18.4 V J75 – OAM Observatory, La Sagra MPS 290083
2009 07 16.88370 20 05 39.82 -11 35 43.3 18.1 V J75 – OAM Observatory, La Sagra MPS 290083
2009 07 16.89632 20 05 39.24 -11 35 49.2 18.5 V J75 – OAM Observatory, La Sagra MPS 290083
2009 07 18.94971 20 04 06.38 -11 51 35.1 18.2 V J75 – OAM Observatory, La Sagra MPS 290083
2009 07 18.96215 20 04 05.78 -11 51 40.8 18.3 V J75 – OAM Observatory, La Sagra MPS 290083
2009 07 18.97459 20 04 05.13 -11 51 47.6 18.1 V J75 – OAM Observatory, La Sagra MPS 290083
2009 07 24.56535 19 59 50.02 -12 37 31.0 17.8 V E12 – Siding Spring Survey MPS 291382
2009 07 24.57457 19 59 49.59 -12 37 35.0 18.2 V E12 – Siding Spring Survey MPS 291382
